Weather in Beloomut

Russia / Moscow Oblast     54°56′38″N   39°20′22″E
temp.,
°C
wind,
m/s
gust,
m/s
humid.,
%
clouds,
%
prec.,
mm/h
press.,
hPa
HPBL,
m
28 june, tue
tue2800:00+19nnw22830 0.0 101815
03:00+18nnw23870 0.0 101846
06:00+19ne36871 0.0 1019209
09:00+22nne57573 0.0 1019741
12:00+24nne57415 0.0 10201381
15:00+24nne56398 0.0 10201724
18:00+22nne47481 0.0 1020669
21:00+15nne411610 0.0 1022262
29 june, wed
wed2900:00+12ne37730 0.0 1023138
03:00+10ene22750 0.0 102425
06:00+12ene24700 0.0 1024129
09:00+18ene24470 0.0 1023872
12:00+21ne23360 0.0 10231900
15:00+23n12343 0.0 10212220
18:00+22nw13463 0.0 10201680
21:00+15n22713 0.0 102019
30 june, thu
thu3000:00+12nne117221 0.0 102110
03:00+11nnw227517 0.0 102117
06:00+13nnw257772 0.0 1021134
09:00+19nnw355256 0.0 1020714
12:00+22nnw463994 0.0 10191868
15:00+24nnw463442 0.0 10182294
18:00+23nnw364912 0.0 1017711
21:00+16n3367100 0.0 101834
1 july, fri
fri100:00+15nnw36722 0.0 101995
03:00+13n36860 0.0 1020106
06:00+15n24800 0.0 1021134
09:00+20nne24530 0.0 1021738
12:00+24n35365 0.0 10202052
15:00+25n35320 0.0 10202222
18:00+23ne36465 0.0 1019423
21:00+16ene22600 0.0 102011
2 july, sat
sat200:00+14nw11625 0.0 102011
03:00+13wsw116455 0.0 102010
06:00+16wnw236890 0.0 102076
09:00+22wnw235645 0.0 1020375
12:00+26wnw3450100 0.0 10181197
15:00+28w5647100 0.0 10171831
18:00+24w3862100 0.0 1016207
21:00+21wnw4973100 0.0 1016179